Weather History for KARB - January, 2014

Change the Weather History Date:

Monday, January 6, 2014

  Actual Average Record
Temperature  
Mean Temperature 2 °F -  
Max Temperature 19 °F 31 °F 54 °F (2008)
Min Temperature -15 °F 16 °F -15 °F (2014)
Degree Days  
Heating Degree Days 63    
Moisture  
Dew Point -4 °F    
Average Humidity 71    
Maximum Humidity 86    
Minimum Humidity 61    
Precipitation  
Precipitation 0.00 in - - ()
Sea Level Pressure  
Sea Level Pressure 29.87 in    
Wind  
Wind Speed 20 mph (West)    
Max Wind Speed 30 mph    
Max Gust Speed 43 mph    
Visibility 4 miles    
Events Snow    
Averages and records for this station are not official NWS values.
T = Trace of Precipitation, MM = Missing Value Source: NWS Daily Summary

Daily Weather History Graph

Daily Weather History Graph

Search for Another Location

Airport or City:

Trip Planner

Search our weather history database for the weather conditions in past years. The results will help you decide how hot, cold, wet, or windy it might be!

Date:

Astronomy

Jan. 06, 2014 Rise Set
Actual Time 8:03 AM EST 5:18 PM EST
Civil Twilight 7:32 AM EST 5:49 PM EST
Nautical Twilight 6:57 AM EST 6:24 PM EST
Astronomical Twilight 6:23 AM EST 6:58 PM EST
Moon 11:11 AM EST (1/6) 11:58 PM EST (1/6)
Length of Visible Light 10h 17m
Length of Day
9h 14m
Waxing Crescent, 34% of the Moon is Illuminated
Jan 6
Waxing Crescent
Jan 7
First Quarter
Jan 15
Full
Jan 24
Last Quarter
Jan 30
New

Hourly Weather History & Observations

Time (EST) Temp. Windchill Dew Point Humidity Pressure Visibility Wind Dir Wind Speed Gust Speed Precip Events Conditions
12:11 AM 19.4 °F 2.8 °F 15.8 °F 86% 29.57 in 2.0 mi NNW 21.9 mph 31.1 mph N/A   Overcast
12:31 AM 19.4 °F 3.6 °F 14.0 °F 80% 29.58 in 1.8 mi NNW 19.6 mph 34.5 mph N/A   Haze
12:53 AM 18.0 °F 1.3 °F 14.0 °F 84% 29.62 in 1.5 mi NNW 20.7 mph 28.8 mph N/A   Overcast
1:10 AM 17.6 °F 2.2 °F 12.2 °F 79% 29.60 in 2.0 mi NNW 17.3 mph 32.2 mph N/A   Haze
1:27 AM 17.6 °F 2.2 °F 12.2 °F 79% 29.61 in 3.0 mi NW 17.3 mph 31.1 mph N/A   Haze
1:44 AM 17.6 °F 3.2 °F 12.2 °F 79% 29.62 in 2.5 mi NW 15.0 mph 27.6 mph N/A   Haze
1:53 AM 16.0 °F 0.6 °F 10.9 °F 81% 29.65 in 2.5 mi NW 16.1 mph 25.3 mph N/A   Haze
2:05 AM 15.8 °F 0.3 °F 10.4 °F 79% 29.63 in 4.0 mi NW 16.1 mph 23.0 mph N/A   Haze
2:53 AM 15.1 °F -2.0 °F 10.0 °F 80% 29.71 in 7.0 mi NW 19.6 mph 29.9 mph N/A   Overcast
3:45 AM 14.0 °F -1.4 °F 8.6 °F 79% 29.70 in 10.0 mi NW 15.0 mph 23.0 mph N/A   Overcast
3:53 AM 14.0 °F 1.2 °F 8.1 °F 77% 29.73 in 10.0 mi WNW 10.4 mph 23.0 mph N/A   Overcast
4:36 AM 14.0 °F -2.5 °F 8.6 °F 79% 29.73 in 10.0 mi WNW 17.3 mph 25.3 mph N/A   Overcast
4:53 AM 12.9 °F -3.9 °F 7.0 °F 77% 29.77 in 10.0 mi WNW 17.3 mph 23.0 mph N/A   Overcast
5:09 AM 12.2 °F -3.7 °F 6.8 °F 79% 29.74 in 10.0 mi WNW 15.0 mph 20.7 mph N/A   Overcast
5:53 AM 12.9 °F -0.9 °F 6.1 °F 74% 29.79 in 10.0 mi WNW 11.5 mph - N/A   Overcast
6:53 AM 12.9 °F -0.9 °F 7.0 °F 77% 29.82 in 10.0 mi West 11.5 mph - N/A   Overcast
7:38 AM 12.2 °F -5.3 °F 6.8 °F 79% 29.79 in 5.0 mi West 18.4 mph 25.3 mph N/A   Haze
7:53 AM 12.0 °F -6.5 °F 3.9 °F 70% 29.84 in 5.0 mi West 20.7 mph 33.4 mph N/A   Haze
8:11 AM 10.4 °F -9.1 °F 5.0 °F 79% 29.81 in 1.8 mi West 21.9 mph - 0.00 in Snow Light Snow
8:23 AM 8.6 °F -10.5 °F 3.2 °F 79% 29.82 in 3.0 mi West 19.6 mph 27.6 mph 0.00 in Snow Light Snow
8:32 AM 8.6 °F -8.3 °F 3.2 °F 79% 29.82 in 2.5 mi West 15.0 mph 29.9 mph 0.00 in Snow Light Snow
8:39 AM 8.6 °F -11.9 °F 1.4 °F 73% 29.83 in 3.0 mi West 23.0 mph 27.6 mph 0.00 in Snow Light Snow
8:47 AM 8.6 °F -10.5 °F 1.4 °F 73% 29.83 in 1.8 mi West 19.6 mph 33.4 mph 0.00 in Snow Light Snow
8:48 AM 8.1 °F -11.7 °F 1.0 °F 73% 29.88 in 1.8 mi West 20.7 mph 33.4 mph 0.00 in Snow Light Snow
8:57 AM 8.6 °F -11.9 °F 1.4 °F 73% 29.83 in 1.5 mi West 23.0 mph 28.8 mph 0.00 in Snow Light Snow
9:07 AM 6.8 °F -13.8 °F 1.4 °F 79% 29.84 in 1.2 mi WSW 21.9 mph 28.8 mph 0.00 in Snow Light Snow
9:30 AM 6.8 °F -14.3 °F -0.4 °F 72% 29.85 in 0.5 mi West 23.0 mph 33.4 mph 0.00 in Snow Snow
9:46 AM 5.0 °F -15.7 °F -0.4 °F 78% 29.85 in 1.0 mi West 20.7 mph 38.0 mph 0.00 in Snow Light Snow
9:53 AM 5.0 °F -16.7 °F -2.0 °F 73% 29.91 in 1.2 mi West 23.0 mph 31.1 mph 0.00 in Snow Light Snow
10:03 AM 3.2 °F -18.6 °F -2.2 °F 78% 29.86 in 1.2 mi West 21.9 mph 32.2 mph 0.00 in Snow Light Snow
10:11 AM 3.2 °F -19.9 °F -2.2 °F 78% 29.86 in 3.0 mi West 25.3 mph 32.2 mph 0.00 in Snow Light Snow
10:53 AM 3.0 °F -18.3 °F -5.1 °F 69% 29.92 in 3.0 mi West 20.7 mph 29.9 mph 0.00 in Snow Light Snow
11:53 AM 3.0 °F -17.8 °F -6.0 °F 66% 29.92 in 3.0 mi West 19.6 mph 32.2 mph 0.00 in Snow Light Snow
12:04 PM 1.4 °F -22.3 °F -7.6 °F 66% 29.87 in 2.0 mi WSW 25.3 mph 34.5 mph 0.00 in Snow Light Snow
12:15 PM 1.4 °F -21.9 °F -7.6 °F 66% 29.87 in 1.8 mi WSW 24.2 mph 32.2 mph 0.00 in Snow Light Snow
12:20 PM -0.4 °F -24.3 °F -7.6 °F 72% 29.87 in 2.0 mi West 24.2 mph - 0.00 in Snow Light Snow
12:28 PM -0.4 °F -22.8 °F -9.4 °F 66% 29.87 in 3.0 mi West 20.7 mph 32.2 mph 0.00 in Snow Light Snow
12:40 PM -0.4 °F -24.7 °F -9.4 °F 66% 29.87 in 3.0 mi West 25.3 mph 33.4 mph 0.00 in Snow Blowing Snow
12:48 PM -0.4 °F -25.2 °F -9.4 °F 66% 29.87 in 2.0 mi WSW 26.5 mph 32.2 mph 0.00 in Snow Blowing Snow
12:53 PM -0.0 °F -23.3 °F -9.9 °F 63% 29.93 in 2.5 mi WSW 23.0 mph 29.9 mph 0.00 in Snow Blowing Snow
1:02 PM -0.4 °F -24.3 °F -9.4 °F 66% 29.87 in 4.0 mi WSW 24.2 mph 29.9 mph N/A Snow Blowing Snow
1:53 PM -0.0 °F -21.3 °F -9.0 °F 66% 29.92 in 3.0 mi WSW 18.4 mph 29.9 mph N/A Snow Blowing Snow
2:26 PM -0.4 °F -23.8 °F -9.4 °F 66% 29.88 in 2.5 mi WSW 23.0 mph 29.9 mph N/A Snow Blowing Snow
2:39 PM -0.4 °F -25.2 °F -9.4 °F 66% 29.88 in 1.2 mi WSW 26.5 mph 33.4 mph N/A Snow Blowing Snow
2:48 PM -0.4 °F -22.3 °F -9.4 °F 66% 29.89 in 1.8 mi WSW 19.6 mph 34.5 mph N/A   Haze
2:53 PM -0.9 °F -24.5 °F -9.9 °F 66% 29.95 in 2.5 mi WSW 23.0 mph 29.9 mph N/A   Haze
3:10 PM -0.4 °F -26.0 °F -9.4 °F 66% 29.90 in 1.2 mi WSW 28.8 mph 35.7 mph N/A   Haze
3:17 PM -0.4 °F -24.3 °F -9.4 °F 66% 29.91 in 2.0 mi WSW 24.2 mph 31.1 mph N/A   Haze
3:26 PM -2.2 °F -28.8 °F -9.4 °F 71% 29.92 in 1.2 mi WSW 29.9 mph 33.4 mph N/A   Haze
3:49 PM -2.2 °F -27.6 °F -11.2 °F 66% 29.94 in 0.8 mi WSW 26.5 mph 39.1 mph 0.00 in Snow Light Snow
3:53 PM -2.9 °F -27.6 °F -11.0 °F 68% 30.00 in 1.2 mi West 24.2 mph 31.1 mph 0.00 in Snow Light Snow
3:56 PM -2.2 °F -25.2 °F -11.2 °F 66% 29.94 in 2.0 mi WSW 20.7 mph 33.4 mph 0.00 in   Haze
4:04 PM -2.2 °F -28.4 °F -11.2 °F 66% 29.94 in 3.0 mi WSW 28.8 mph 35.7 mph 0.00 in   Haze
4:07 PM -2.2 °F -28.4 °F -11.2 °F 66% 29.95 in 1.8 mi WSW 28.8 mph 35.7 mph 0.00 in   Haze
4:15 PM -4.0 °F -29.1 °F -11.2 °F 71% 29.95 in 1.2 mi West 24.2 mph 42.6 mph 0.00 in   Overcast
4:28 PM -4.0 °F -28.1 °F -13.0 °F 65% 29.96 in 1.2 mi West 21.9 mph 35.7 mph 0.00 in Snow Light Snow
4:34 PM -5.8 °F -32.0 °F -13.0 °F 71% 29.96 in 2.0 mi West 25.3 mph 35.7 mph 0.00 in Snow Light Snow
4:53 PM -6.0 °F -31.2 °F -14.1 °F 68% 30.04 in 2.5 mi WSW 23.0 mph 34.5 mph 0.00 in   Haze
5:01 PM -5.8 °F -31.0 °F -14.8 °F 65% 29.98 in 3.0 mi West 23.0 mph 31.1 mph N/A   Haze
5:06 PM -5.8 °F -32.9 °F -14.8 °F 65% 29.98 in 2.5 mi West 27.6 mph 33.4 mph N/A   Haze
5:18 PM -7.6 °F -33.9 °F -16.6 °F 65% 29.99 in 4.0 mi WSW 24.2 mph 29.9 mph N/A   Haze
5:30 PM -7.6 °F -33.9 °F -16.6 °F 65% 30.00 in 2.0 mi West 24.2 mph 35.7 mph N/A   Haze
5:44 PM -7.6 °F -33.4 °F -16.6 °F 65% 30.00 in 5.0 mi WSW 23.0 mph 29.9 mph N/A   Haze
5:53 PM -8.0 °F -33.9 °F -18.0 °F 61% 30.07 in 4.0 mi West 23.0 mph 31.1 mph N/A   Haze
6:53 PM -11.9 °F -37.4 °F -20.9 °F 64% 30.11 in 9.0 mi WSW 19.6 mph 28.8 mph N/A   Clear
7:53 PM -14.1 °F -40.8 °F -23.1 °F 64% 30.14 in 10.0 mi WSW 20.7 mph 25.3 mph N/A   Clear
8:53 PM -15.0 °F -37.7 °F -24.0 °F 64% 30.15 in 10.0 mi WSW 13.8 mph 21.9 mph N/A   Clear
9:53 PM -15.0 °F -37.7 °F -24.0 °F 64% 30.15 in 10.0 mi WSW 13.8 mph - N/A   Clear
10:53 PM -15.0 °F -36.8 °F -24.0 °F 64% 30.14 in 10.0 mi SW 12.7 mph - N/A   Clear
11:53 PM -15.0 °F -37.7 °F -23.1 °F 67% 30.14 in 10.0 mi SW 13.8 mph - N/A   Clear